Year,Month,Day,Hour,Minute,Value (Times are PST for temperature in C)
2011,04,07,00,00,1.20
2011,04,07,00,01,1.20
2011,04,07,00,02,1.10
2011,04,07,00,03,1.10
2011,04,07,00,04,1.10
2011,04,07,00,05,1.00
2011,04,07,00,06,1.00
2011,04,07,00,07,1.00
2011,04,07,00,08,0.90
2011,04,07,00,09,0.90
2011,04,07,00,10,0.90
2011,04,07,00,11,0.90
2011,04,07,00,12,0.90
2011,04,07,00,13,0.90
2011,04,07,00,14,0.90
2011,04,07,00,15,0.90
2011,04,07,00,16,0.90
2011,04,07,00,17,0.90
2011,04,07,00,18,0.90
2011,04,07,00,19,0.90
2011,04,07,00,20,0.90
2011,04,07,00,21,0.90
2011,04,07,00,22,0.80
2011,04,07,00,23,0.80
2011,04,07,00,24,0.80
2011,04,07,00,25,0.80
2011,04,07,00,26,0.80
2011,04,07,00,27,0.70
2011,04,07,00,28,0.70
2011,04,07,00,29,0.80
2011,04,07,00,30,0.80
2011,04,07,00,31,0.80
2011,04,07,00,32,0.80
2011,04,07,00,33,0.80
2011,04,07,00,34,0.80
2011,04,07,00,35,0.80
2011,04,07,00,36,0.80
2011,04,07,00,37,0.80
2011,04,07,00,38,0.90
2011,04,07,00,39,0.90
2011,04,07,00,40,0.90
2011,04,07,00,41,0.90
2011,04,07,00,42,0.90
2011,04,07,00,43,1.00
2011,04,07,00,44,1.00
2011,04,07,00,45,1.00
2011,04,07,00,46,1.00
2011,04,07,00,47,1.10
2011,04,07,00,48,1.10
2011,04,07,00,49,1.10
2011,04,07,00,50,1.20
2011,04,07,00,51,1.20
2011,04,07,00,52,1.20
2011,04,07,00,53,1.10
2011,04,07,00,54,1.10
2011,04,07,00,55,1.10
2011,04,07,00,56,1.10
2011,04,07,00,57,1.10
2011,04,07,00,58,1.10
2011,04,07,00,59,1.00
2011,04,07,01,00,1.00
2011,04,07,01,01,0.90
2011,04,07,01,02,0.90
2011,04,07,01,03,0.90
2011,04,07,01,04,0.90
2011,04,07,01,05,0.90
2011,04,07,01,06,0.90
2011,04,07,01,07,0.90
2011,04,07,01,08,1.00
2011,04,07,01,09,1.00
2011,04,07,01,10,1.00
2011,04,07,01,11,1.00
2011,04,07,01,12,1.10
2011,04,07,01,13,1.10
2011,04,07,01,14,1.10
2011,04,07,01,15,1.10
2011,04,07,01,16,1.10
2011,04,07,01,17,1.10
2011,04,07,01,18,1.10
2011,04,07,01,19,1.20
2011,04,07,01,20,1.20
2011,04,07,01,21,1.20
2011,04,07,01,22,1.20
2011,04,07,01,23,1.10
2011,04,07,01,24,1.10
2011,04,07,01,25,1.10
2011,04,07,01,26,1.10
2011,04,07,01,27,1.10
2011,04,07,01,28,1.00
2011,04,07,01,29,1.00
2011,04,07,01,30,1.00
2011,04,07,01,31,1.00
2011,04,07,01,32,0.90
2011,04,07,01,33,0.90
2011,04,07,01,34,0.90
2011,04,07,01,35,0.90
2011,04,07,01,36,0.80
2011,04,07,01,37,0.80
2011,04,07,01,38,0.80
2011,04,07,01,39,0.80
2011,04,07,01,40,0.80
2011,04,07,01,41,0.80
2011,04,07,01,42,0.80
2011,04,07,01,43,0.70
2011,04,07,01,44,0.70
2011,04,07,01,45,0.70
2011,04,07,01,46,0.70
2011,04,07,01,47,0.70
2011,04,07,01,48,0.80
2011,04,07,01,49,0.80
2011,04,07,01,50,0.80
2011,04,07,01,51,0.90
2011,04,07,01,52,0.90
2011,04,07,01,53,0.90
2011,04,07,01,54,0.90
2011,04,07,01,55,0.90
2011,04,07,01,56,0.90
2011,04,07,01,57,0.90
2011,04,07,01,58,0.90
2011,04,07,01,59,1.00
2011,04,07,02,00,1.00
2011,04,07,02,01,1.00
2011,04,07,02,02,1.00
2011,04,07,02,03,1.00
2011,04,07,02,04,1.00
2011,04,07,02,05,1.00
2011,04,07,02,06,1.00
2011,04,07,02,07,1.10
2011,04,07,02,08,1.10
2011,04,07,02,09,1.10
2011,04,07,02,10,1.10
2011,04,07,02,11,1.10
2011,04,07,02,12,1.10
2011,04,07,02,13,1.10
2011,04,07,02,14,1.10
2011,04,07,02,15,1.10
2011,04,07,02,16,1.10
2011,04,07,02,17,1.10
2011,04,07,02,18,1.10
2011,04,07,02,19,1.10
2011,04,07,02,20,1.10
2011,04,07,02,21,1.10
2011,04,07,02,22,1.10
2011,04,07,02,23,1.10
2011,04,07,02,24,1.00
2011,04,07,02,25,1.00
2011,04,07,02,26,1.00
2011,04,07,02,27,1.00
2011,04,07,02,28,0.90
2011,04,07,02,29,0.90
2011,04,07,02,30,0.90
2011,04,07,02,31,0.90
2011,04,07,02,32,0.90
2011,04,07,02,33,0.90
2011,04,07,02,34,0.90
2011,04,07,02,35,0.90
2011,04,07,02,36,0.80
2011,04,07,02,37,0.90
2011,04,07,02,38,0.90
2011,04,07,02,39,0.90
2011,04,07,02,40,0.90
2011,04,07,02,41,0.90
2011,04,07,02,42,1.00
2011,04,07,02,43,1.00
2011,04,07,02,44,1.00
2011,04,07,02,45,1.00
2011,04,07,02,46,1.00
2011,04,07,02,47,1.00
2011,04,07,02,48,1.00
2011,04,07,02,49,1.00
2011,04,07,02,50,1.00
2011,04,07,02,51,1.10
2011,04,07,02,52,1.10
2011,04,07,02,53,1.10
2011,04,07,02,54,1.10
2011,04,07,02,55,1.10
2011,04,07,02,56,1.00
2011,04,07,02,57,1.00
2011,04,07,02,58,1.00
2011,04,07,02,59,1.00
2011,04,07,03,00,1.00
2011,04,07,03,01,1.00
2011,04,07,03,02,1.10
2011,04,07,03,03,1.10
2011,04,07,03,04,1.10
2011,04,07,03,05,1.10
2011,04,07,03,06,1.20
2011,04,07,03,07,1.20
2011,04,07,03,08,1.20
2011,04,07,03,09,1.10
2011,04,07,03,10,1.10
2011,04,07,03,11,1.10
2011,04,07,03,12,1.10
2011,04,07,03,13,1.10
2011,04,07,03,14,1.10
2011,04,07,03,15,1.20
2011,04,07,03,16,1.20
2011,04,07,03,17,1.20
2011,04,07,03,18,1.20
2011,04,07,03,19,1.20
2011,04,07,03,20,1.20
2011,04,07,03,21,1.20
2011,04,07,03,22,1.30
2011,04,07,03,23,1.30
2011,04,07,03,24,1.30
2011,04,07,03,25,1.30
2011,04,07,03,26,1.20
2011,04,07,03,27,1.30
2011,04,07,03,28,1.30
2011,04,07,03,29,1.30
2011,04,07,03,30,1.30
2011,04,07,03,31,1.30
2011,04,07,03,32,1.30
2011,04,07,03,33,1.40
2011,04,07,03,34,1.40
2011,04,07,03,35,1.40
2011,04,07,03,36,1.40
2011,04,07,03,37,1.50
2011,04,07,03,38,1.50
2011,04,07,03,39,1.50
2011,04,07,03,40,1.50
2011,04,07,03,41,1.50
2011,04,07,03,42,1.50
2011,04,07,03,43,1.50
2011,04,07,03,44,1.50
2011,04,07,03,45,1.50
2011,04,07,03,46,1.50
2011,04,07,03,47,1.50
2011,04,07,03,48,1.50
2011,04,07,03,49,1.60
2011,04,07,03,50,1.60
2011,04,07,03,51,1.60
2011,04,07,03,52,1.60
2011,04,07,03,53,1.60
2011,04,07,03,54,1.60
2011,04,07,03,55,1.60
2011,04,07,03,56,1.60
2011,04,07,03,57,1.60
2011,04,07,03,58,1.60
2011,04,07,03,59,1.60
2011,04,07,04,00,1.60
2011,04,07,04,01,1.60
2011,04,07,04,02,1.70
2011,04,07,04,03,1.70
2011,04,07,04,04,1.70
2011,04,07,04,05,1.70
2011,04,07,04,06,1.70
2011,04,07,04,07,1.70
2011,04,07,04,08,1.70
2011,04,07,04,09,1.70
2011,04,07,04,10,1.70
2011,04,07,04,11,1.70
2011,04,07,04,12,1.70
2011,04,07,04,13,1.70
2011,04,07,04,14,1.70
2011,04,07,04,15,1.70
2011,04,07,04,16,1.60
2011,04,07,04,17,1.70
2011,04,07,04,18,1.70
2011,04,07,04,19,1.70
2011,04,07,04,20,1.70
2011,04,07,04,21,1.70
2011,04,07,04,22,1.80
2011,04,07,04,23,1.80
2011,04,07,04,24,1.80
2011,04,07,04,25,1.80
2011,04,07,04,26,1.80
2011,04,07,04,27,1.80
2011,04,07,04,28,1.80
2011,04,07,04,29,1.80
2011,04,07,04,30,1.80
2011,04,07,04,31,1.80
2011,04,07,04,32,1.80
2011,04,07,04,33,1.80
2011,04,07,04,34,1.80
2011,04,07,04,35,1.80
2011,04,07,04,36,1.80
2011,04,07,04,37,1.80
2011,04,07,04,38,1.80
2011,04,07,04,39,1.80
2011,04,07,04,40,1.80
2011,04,07,04,41,1.80
2011,04,07,04,42,1.80
2011,04,07,04,43,1.80
2011,04,07,04,44,1.80
2011,04,07,04,45,1.80
2011,04,07,04,46,1.80
2011,04,07,04,47,1.80
2011,04,07,04,48,1.90
2011,04,07,04,49,1.90
2011,04,07,04,50,1.90
2011,04,07,04,51,2.00
2011,04,07,04,52,2.10
2011,04,07,04,53,2.10
2011,04,07,04,54,2.10
2011,04,07,04,55,2.20
2011,04,07,04,56,2.30
2011,04,07,04,57,2.30
2011,04,07,04,58,2.40
2011,04,07,04,59,2.50
2011,04,07,05,00,2.50
2011,04,07,05,01,2.60
2011,04,07,05,02,2.60
2011,04,07,05,03,2.60
2011,04,07,05,04,2.60
2011,04,07,05,05,2.70
2011,04,07,05,06,2.70
2011,04,07,05,07,2.70
2011,04,07,05,08,2.70
2011,04,07,05,09,2.70
2011,04,07,05,10,2.80
2011,04,07,05,11,2.80
2011,04,07,05,12,2.80
2011,04,07,05,13,2.80
2011,04,07,05,14,2.80
2011,04,07,05,15,2.80
2011,04,07,05,16,2.80
2011,04,07,05,17,2.80
2011,04,07,05,18,2.80
2011,04,07,05,19,2.80
2011,04,07,05,20,2.80
2011,04,07,05,21,2.80
2011,04,07,05,22,2.80
2011,04,07,05,23,2.80
2011,04,07,05,24,2.90
2011,04,07,05,25,2.90
2011,04,07,05,26,3.00
2011,04,07,05,27,3.00
2011,04,07,05,28,3.00
2011,04,07,05,29,3.10
2011,04,07,05,30,3.10
2011,04,07,05,31,3.10
2011,04,07,05,32,3.10
2011,04,07,05,33,3.10
2011,04,07,05,34,3.10
2011,04,07,05,35,3.10
2011,04,07,05,36,3.10
2011,04,07,05,37,3.10
2011,04,07,05,38,3.10
2011,04,07,05,39,3.10
2011,04,07,05,40,3.10
2011,04,07,05,41,3.10
2011,04,07,05,42,3.10
2011,04,07,05,43,3.10
2011,04,07,05,44,3.20
2011,04,07,05,45,3.20
2011,04,07,05,46,3.20
2011,04,07,05,47,3.20
2011,04,07,05,48,3.20
2011,04,07,05,49,3.20
2011,04,07,05,50,3.30
2011,04,07,05,51,3.30
2011,04,07,05,52,3.40
2011,04,07,05,53,3.40
2011,04,07,05,54,3.50
2011,04,07,05,55,3.50
2011,04,07,05,56,3.50
2011,04,07,05,57,3.60
2011,04,07,05,58,3.60
2011,04,07,05,59,3.60
2011,04,07,06,00,3.60
2011,04,07,06,01,3.60
2011,04,07,06,02,3.60
2011,04,07,06,03,3.60
2011,04,07,06,04,3.70
2011,04,07,06,05,3.70
2011,04,07,06,06,3.70
2011,04,07,06,07,3.70
2011,04,07,06,08,3.70
2011,04,07,06,09,3.70
2011,04,07,06,10,3.70
2011,04,07,06,11,3.70
2011,04,07,06,12,3.70
2011,04,07,06,13,3.70
2011,04,07,06,14,3.70
2011,04,07,06,15,3.70
2011,04,07,06,16,3.70
2011,04,07,06,17,3.70
2011,04,07,06,18,3.70
2011,04,07,06,19,3.70
2011,04,07,06,20,3.70
2011,04,07,06,21,3.70
2011,04,07,06,22,3.70
2011,04,07,06,23,3.70
2011,04,07,06,24,3.70
2011,04,07,06,25,3.70
2011,04,07,06,26,3.70
2011,04,07,06,27,3.70
2011,04,07,06,28,3.70
2011,04,07,06,29,3.70
2011,04,07,06,30,3.70
2011,04,07,06,31,3.70
2011,04,07,06,32,3.70
2011,04,07,06,33,3.70
2011,04,07,06,34,3.70
2011,04,07,06,35,3.70
2011,04,07,06,36,3.70
2011,04,07,06,37,3.70
2011,04,07,06,38,3.70
2011,04,07,06,39,3.70
2011,04,07,06,40,3.70
2011,04,07,06,41,3.60
2011,04,07,06,42,3.60
2011,04,07,06,43,3.60
2011,04,07,06,44,3.60
2011,04,07,06,45,3.60
2011,04,07,06,46,3.60
2011,04,07,06,47,3.60
2011,04,07,06,48,3.60
2011,04,07,06,49,3.60
2011,04,07,06,50,3.60
2011,04,07,06,51,3.60
2011,04,07,06,52,3.60
2011,04,07,06,53,3.60
2011,04,07,06,54,3.60
2011,04,07,06,55,3.60
2011,04,07,06,56,3.50
2011,04,07,06,57,3.50
2011,04,07,06,58,3.50
2011,04,07,06,59,3.50
2011,04,07,07,00,3.50
2011,04,07,07,01,3.50
2011,04,07,07,02,3.50
2011,04,07,07,03,3.50
2011,04,07,07,04,3.50
2011,04,07,07,05,3.50
2011,04,07,07,06,3.50
2011,04,07,07,07,3.60
2011,04,07,07,08,3.50
2011,04,07,07,09,3.50
2011,04,07,07,10,3.60
2011,04,07,07,11,3.60
2011,04,07,07,12,3.60
2011,04,07,07,13,3.60
2011,04,07,07,14,3.60
2011,04,07,07,15,3.70
2011,04,07,07,16,3.70
2011,04,07,07,17,3.70
2011,04,07,07,18,3.70
2011,04,07,07,19,3.70
2011,04,07,07,20,3.70
2011,04,07,07,21,3.70
2011,04,07,07,22,3.70
2011,04,07,07,23,3.80
2011,04,07,07,24,3.80
2011,04,07,07,25,3.80
2011,04,07,07,26,3.80
2011,04,07,07,27,3.80
2011,04,07,07,28,3.90
2011,04,07,07,29,3.90
2011,04,07,07,30,3.90
2011,04,07,07,31,3.90
2011,04,07,07,32,3.90
2011,04,07,07,33,3.90
2011,04,07,07,34,3.90
2011,04,07,07,35,3.90
2011,04,07,07,36,3.90
2011,04,07,07,37,3.90
2011,04,07,07,38,3.90
2011,04,07,07,39,4.00
2011,04,07,07,40,4.00
2011,04,07,07,41,4.00
2011,04,07,07,42,4.00
2011,04,07,07,43,4.00
2011,04,07,07,44,4.10
2011,04,07,07,45,4.10
2011,04,07,07,46,4.10
2011,04,07,07,47,4.10
2011,04,07,07,48,4.10
2011,04,07,07,49,4.10
2011,04,07,07,50,4.10
2011,04,07,07,51,4.10
2011,04,07,07,52,4.10
2011,04,07,07,53,4.10
2011,04,07,07,54,4.10
2011,04,07,07,55,4.10
2011,04,07,07,56,4.10
2011,04,07,07,57,4.10
2011,04,07,07,58,4.10
2011,04,07,07,59,4.10
2011,04,07,08,00,4.10
2011,04,07,08,01,4.10
2011,04,07,08,02,4.10
2011,04,07,08,03,4.10
2011,04,07,08,04,4.10
2011,04,07,08,05,4.10
2011,04,07,08,06,4.10
2011,04,07,08,07,4.10
2011,04,07,08,08,4.10
2011,04,07,08,09,4.10
2011,04,07,08,10,4.10
2011,04,07,08,11,4.10
2011,04,07,08,12,4.10
2011,04,07,08,13,4.10
2011,04,07,08,14,4.10
2011,04,07,08,15,4.10
2011,04,07,08,16,4.10
2011,04,07,08,17,4.10
2011,04,07,08,18,4.20
2011,04,07,08,19,4.20
2011,04,07,08,20,4.20
2011,04,07,08,21,4.20
2011,04,07,08,22,4.30
2011,04,07,08,23,4.30
2011,04,07,08,24,4.30
2011,04,07,08,25,4.30
2011,04,07,08,26,4.40
2011,04,07,08,27,4.40
2011,04,07,08,28,4.40
2011,04,07,08,29,4.40
2011,04,07,08,30,4.40
2011,04,07,08,31,4.50
2011,04,07,08,32,4.50
2011,04,07,08,33,4.50
2011,04,07,08,34,4.50
2011,04,07,08,35,4.50
2011,04,07,08,36,4.50
2011,04,07,08,37,4.50
2011,04,07,08,38,4.60
2011,04,07,08,39,4.60
2011,04,07,08,40,4.60
2011,04,07,08,41,4.60
2011,04,07,08,42,4.60
2011,04,07,08,43,4.70
2011,04,07,08,44,4.70
2011,04,07,08,45,4.70
2011,04,07,08,46,4.70
2011,04,07,08,47,4.70
2011,04,07,08,48,4.70
2011,04,07,08,49,4.80
2011,04,07,08,50,4.80
2011,04,07,08,51,4.80
2011,04,07,08,52,4.80
2011,04,07,08,53,4.80
2011,04,07,08,54,4.90
2011,04,07,08,55,4.90
2011,04,07,08,56,4.90
2011,04,07,08,57,4.90
2011,04,07,08,58,4.90
2011,04,07,08,59,4.90
2011,04,07,09,00,4.90
2011,04,07,09,01,4.90
2011,04,07,09,02,4.90
2011,04,07,09,03,5.00
2011,04,07,09,04,5.00
2011,04,07,09,05,5.00
2011,04,07,09,06,5.00
2011,04,07,09,07,5.10
2011,04,07,09,08,5.10
2011,04,07,09,09,5.10
2011,04,07,09,10,5.10
2011,04,07,09,11,5.10
2011,04,07,09,12,5.20
2011,04,07,09,13,5.20
2011,04,07,09,14,5.20
2011,04,07,09,15,5.20
2011,04,07,09,16,5.20
2011,04,07,09,17,5.30
2011,04,07,09,18,5.30
2011,04,07,09,19,5.30
2011,04,07,09,20,5.30
2011,04,07,09,21,5.40
2011,04,07,09,22,5.40
2011,04,07,09,23,5.40
2011,04,07,09,24,5.40
2011,04,07,09,25,5.40
2011,04,07,09,26,5.40
2011,04,07,09,27,5.40
2011,04,07,09,28,5.40
2011,04,07,09,29,5.40
2011,04,07,09,30,5.50
2011,04,07,09,31,5.50
2011,04,07,09,32,5.50
2011,04,07,09,33,5.60
2011,04,07,09,34,5.60
2011,04,07,09,35,5.60
2011,04,07,09,36,5.60
2011,04,07,09,37,5.60
2011,04,07,09,38,5.70
2011,04,07,09,39,5.70
2011,04,07,09,40,5.70
2011,04,07,09,41,5.70
2011,04,07,09,42,5.70
2011,04,07,09,43,5.80
2011,04,07,09,44,5.80
2011,04,07,09,45,5.80
2011,04,07,09,46,5.80
2011,04,07,09,47,5.80
2011,04,07,09,48,5.90
2011,04,07,09,49,5.90
2011,04,07,09,50,6.00
2011,04,07,09,51,6.00
2011,04,07,09,52,6.10
2011,04,07,09,53,6.20
2011,04,07,09,54,6.20
2011,04,07,09,55,6.20
2011,04,07,09,56,6.20
2011,04,07,09,57,6.20
2011,04,07,09,58,6.10
2011,04,07,09,59,6.10
2011,04,07,10,00,6.10
2011,04,07,10,01,6.10
2011,04,07,10,02,6.00
2011,04,07,10,03,6.00
2011,04,07,10,04,6.00
2011,04,07,10,05,5.90
2011,04,07,10,06,5.90
2011,04,07,10,07,5.90
2011,04,07,10,08,5.90
2011,04,07,10,09,5.90
2011,04,07,10,10,5.90
2011,04,07,10,11,5.90
2011,04,07,10,12,5.90
2011,04,07,10,13,5.90
2011,04,07,10,14,5.90
2011,04,07,10,15,5.90
2011,04,07,10,16,6.00
2011,04,07,10,17,6.00
2011,04,07,10,18,6.10
2011,04,07,10,19,6.10
2011,04,07,10,20,6.10
2011,04,07,10,21,6.20
2011,04,07,10,22,6.20
2011,04,07,10,23,6.20
2011,04,07,10,24,6.30
2011,04,07,10,25,6.30
2011,04,07,10,26,6.40
2011,04,07,10,27,6.40
2011,04,07,10,28,6.50
2011,04,07,10,29,6.50
2011,04,07,10,30,6.60
2011,04,07,10,31,6.70
2011,04,07,10,32,6.70
2011,04,07,10,33,6.70
2011,04,07,10,34,6.70
2011,04,07,10,35,6.80
2011,04,07,10,36,6.80
2011,04,07,10,37,6.80
2011,04,07,10,38,6.90
2011,04,07,10,39,6.90
2011,04,07,10,40,6.90
2011,04,07,10,41,6.90
2011,04,07,10,42,6.80
2011,04,07,10,43,6.80
2011,04,07,10,44,6.80
2011,04,07,10,45,6.80
2011,04,07,10,46,6.80
2011,04,07,10,47,6.90
2011,04,07,10,48,6.90
2011,04,07,10,49,6.90
2011,04,07,10,50,6.90
2011,04,07,10,51,6.90
2011,04,07,10,52,6.90
2011,04,07,10,53,6.90
2011,04,07,10,54,7.00
2011,04,07,10,55,7.00
2011,04,07,10,56,7.10
2011,04,07,10,57,7.10
2011,04,07,10,58,7.10
2011,04,07,10,59,7.10
2011,04,07,11,00,7.10
2011,04,07,11,01,7.10
2011,04,07,11,02,7.10
2011,04,07,11,03,7.20
2011,04,07,11,04,7.20
2011,04,07,11,05,7.20
2011,04,07,11,06,7.20
2011,04,07,11,07,7.30
2011,04,07,11,08,7.40
2011,04,07,11,09,7.50
2011,04,07,11,10,7.50
2011,04,07,11,11,7.50
2011,04,07,11,12,7.40
2011,04,07,11,13,7.40
2011,04,07,11,14,7.30
2011,04,07,11,15,7.20
2011,04,07,11,16,7.20
2011,04,07,11,17,7.20
2011,04,07,11,18,7.20
2011,04,07,11,19,7.20
2011,04,07,11,20,7.30
2011,04,07,11,21,7.40
2011,04,07,11,22,7.40
2011,04,07,11,23,7.40
2011,04,07,11,24,7.40
2011,04,07,11,25,7.40
2011,04,07,11,26,7.40
2011,04,07,11,27,7.30
2011,04,07,11,28,7.30
2011,04,07,11,29,7.30
2011,04,07,11,30,7.30
2011,04,07,11,31,7.30
2011,04,07,11,32,7.30
2011,04,07,11,33,7.30
2011,04,07,11,34,7.30
2011,04,07,11,35,7.30
2011,04,07,11,36,7.20
2011,04,07,11,37,7.20
2011,04,07,11,38,7.20
2011,04,07,11,39,7.20
2011,04,07,11,40,7.20
2011,04,07,11,41,7.20
2011,04,07,11,42,7.20
2011,04,07,11,43,7.20
2011,04,07,11,44,7.20
2011,04,07,11,45,7.20
2011,04,07,11,46,7.20
2011,04,07,11,47,7.20
2011,04,07,11,48,7.20
2011,04,07,11,49,7.30
2011,04,07,11,50,7.30
2011,04,07,11,51,7.40
2011,04,07,11,52,7.50
2011,04,07,11,53,7.60
2011,04,07,11,54,7.70
2011,04,07,11,55,7.70
2011,04,07,11,56,7.60
2011,04,07,11,57,7.60
2011,04,07,11,58,7.40
2011,04,07,11,59,7.30
2011,04,07,12,00,7.30
2011,04,07,12,01,7.40
2011,04,07,12,02,7.40
2011,04,07,12,03,7.50
2011,04,07,12,04,7.50
2011,04,07,12,05,7.50
2011,04,07,12,06,7.50
2011,04,07,12,07,7.50
2011,04,07,12,08,7.50
2011,04,07,12,09,7.60
2011,04,07,12,10,7.60
2011,04,07,12,11,7.60
2011,04,07,12,12,7.60
2011,04,07,12,13,7.60
2011,04,07,12,14,7.60
2011,04,07,12,15,7.60
2011,04,07,12,16,7.50
2011,04,07,12,17,7.50
2011,04,07,12,18,7.40
2011,04,07,12,19,7.40
2011,04,07,12,20,7.40
2011,04,07,12,21,7.40
2011,04,07,12,22,7.40
2011,04,07,12,23,7.40
2011,04,07,12,24,7.30
2011,04,07,12,25,7.40
2011,04,07,12,26,7.40
2011,04,07,12,27,7.40
2011,04,07,12,28,7.40
2011,04,07,12,29,7.50
2011,04,07,12,30,7.50
2011,04,07,12,31,7.40
2011,04,07,12,32,7.40
2011,04,07,12,33,7.40
2011,04,07,12,34,7.30
2011,04,07,12,35,7.40
2011,04,07,12,36,7.50
2011,04,07,12,37,7.50
2011,04,07,12,38,7.60
2011,04,07,12,39,7.60
2011,04,07,12,40,7.60
2011,04,07,12,41,7.60
2011,04,07,12,42,7.60
2011,04,07,12,43,7.70
2011,04,07,12,44,7.70
2011,04,07,12,45,7.70
2011,04,07,12,46,7.70
2011,04,07,12,47,7.70
2011,04,07,12,48,7.70
2011,04,07,12,49,7.70
2011,04,07,12,50,7.70
2011,04,07,12,51,7.70
2011,04,07,12,52,7.70
2011,04,07,12,53,7.70
2011,04,07,12,54,7.80
2011,04,07,12,55,7.80
2011,04,07,12,56,7.70
2011,04,07,12,57,7.70
2011,04,07,12,58,7.70
2011,04,07,12,59,7.70
2011,04,07,13,00,7.70
2011,04,07,13,01,7.70
2011,04,07,13,02,7.80
2011,04,07,13,03,7.80
2011,04,07,13,04,7.80
2011,04,07,13,05,7.80
2011,04,07,13,06,7.80
2011,04,07,13,07,7.90
2011,04,07,13,08,7.90
2011,04,07,13,09,8.00
2011,04,07,13,10,8.00
2011,04,07,13,11,8.00
2011,04,07,13,12,8.00
2011,04,07,13,13,8.00
2011,04,07,13,14,8.00
2011,04,07,13,15,8.00
2011,04,07,13,16,7.90
2011,04,07,13,17,7.90
2011,04,07,13,18,7.90
2011,04,07,13,19,8.00
2011,04,07,13,20,8.10
2011,04,07,13,21,8.20
2011,04,07,13,22,8.30
2011,04,07,13,23,8.40
2011,04,07,13,24,8.40
2011,04,07,13,25,8.50
2011,04,07,13,26,8.50
2011,04,07,13,27,8.40
2011,04,07,13,28,8.40
2011,04,07,13,29,8.50
2011,04,07,13,30,8.50
2011,04,07,13,31,8.50
2011,04,07,13,32,8.50
2011,04,07,13,33,8.60
2011,04,07,13,34,8.60
2011,04,07,13,35,8.60
2011,04,07,13,36,8.60
2011,04,07,13,37,8.60
2011,04,07,13,38,8.60
2011,04,07,13,39,8.60
2011,04,07,13,40,8.70
2011,04,07,13,41,8.70
2011,04,07,13,42,8.80
2011,04,07,13,43,8.80
2011,04,07,13,44,8.80
2011,04,07,13,45,8.80
2011,04,07,13,46,8.80
2011,04,07,13,47,8.80
2011,04,07,13,48,8.80
2011,04,07,13,49,8.80
2011,04,07,13,50,8.90
2011,04,07,13,51,8.80
2011,04,07,13,52,8.80
2011,04,07,13,53,8.90
2011,04,07,13,54,8.90
2011,04,07,13,55,8.90
2011,04,07,13,56,9.00
2011,04,07,13,57,9.00
2011,04,07,13,58,9.00
2011,04,07,13,59,9.00
2011,04,07,14,00,9.00
2011,04,07,14,01,9.00
2011,04,07,14,02,9.10
2011,04,07,14,03,9.10
2011,04,07,14,04,9.10
2011,04,07,14,05,9.10
2011,04,07,14,06,9.10
2011,04,07,14,07,9.10
2011,04,07,14,08,9.20
2011,04,07,14,09,9.20
2011,04,07,14,10,9.10
2011,04,07,14,11,9.20
2011,04,07,14,12,9.20
2011,04,07,14,13,9.10
2011,04,07,14,14,9.10
2011,04,07,14,15,9.10
2011,04,07,14,16,9.10
2011,04,07,14,17,9.10
2011,04,07,14,18,9.10
2011,04,07,14,19,9.10
2011,04,07,14,20,9.20
2011,04,07,14,21,9.20
2011,04,07,14,22,9.30
2011,04,07,14,23,9.30
2011,04,07,14,24,9.30
2011,04,07,14,25,9.30
2011,04,07,14,26,9.30
2011,04,07,14,27,9.30
2011,04,07,14,28,9.40
2011,04,07,14,29,9.40
2011,04,07,14,30,9.50
2011,04,07,14,31,9.50
2011,04,07,14,32,9.50
2011,04,07,14,33,9.60
2011,04,07,14,34,9.60
2011,04,07,14,35,9.60
2011,04,07,14,36,9.60
2011,04,07,14,37,9.60
2011,04,07,14,38,9.60
2011,04,07,14,39,9.70
2011,04,07,14,40,9.80
2011,04,07,14,41,9.90
2011,04,07,14,42,9.90
2011,04,07,14,43,9.90
2011,04,07,14,44,9.80
2011,04,07,14,45,9.80
2011,04,07,14,46,9.80
2011,04,07,14,47,9.80
2011,04,07,14,48,9.80
2011,04,07,14,49,9.80
2011,04,07,14,50,9.80
2011,04,07,14,51,9.80
2011,04,07,14,52,9.80
2011,04,07,14,53,9.80
2011,04,07,14,54,9.80
2011,04,07,14,55,9.80
2011,04,07,14,56,9.90
2011,04,07,14,57,9.80
2011,04,07,14,58,9.90
2011,04,07,14,59,9.90
2011,04,07,15,00,10.00
2011,04,07,15,01,10.10
2011,04,07,15,02,10.00
2011,04,07,15,03,10.00
2011,04,07,15,04,10.00
2011,04,07,15,05,10.00
2011,04,07,15,06,10.00
2011,04,07,15,07,10.00
2011,04,07,15,08,10.00
2011,04,07,15,09,10.00
2011,04,07,15,10,10.10
2011,04,07,15,11,10.10
2011,04,07,15,12,10.10
2011,04,07,15,13,10.10
2011,04,07,15,14,10.10
2011,04,07,15,15,10.20
2011,04,07,15,16,10.20
2011,04,07,15,17,10.20
2011,04,07,15,18,10.30
2011,04,07,15,19,10.30
2011,04,07,15,20,10.30
2011,04,07,15,21,10.30
2011,04,07,15,22,10.30
2011,04,07,15,23,10.40
2011,04,07,15,24,10.40
2011,04,07,15,25,10.50
2011,04,07,15,26,10.50
2011,04,07,15,27,10.50
2011,04,07,15,28,10.50
2011,04,07,15,29,10.40
2011,04,07,15,30,10.30
2011,04,07,15,31,10.30
2011,04,07,15,32,10.30
2011,04,07,15,33,10.30
2011,04,07,15,34,10.30
2011,04,07,15,35,10.30
2011,04,07,15,36,10.40
2011,04,07,15,37,10.40
2011,04,07,15,38,10.50
2011,04,07,15,39,10.50
2011,04,07,15,40,10.60
2011,04,07,15,41,10.60
2011,04,07,15,42,10.60
2011,04,07,15,43,10.60
2011,04,07,15,44,10.70
2011,04,07,15,45,10.70
2011,04,07,15,46,10.60
2011,04,07,15,47,10.60
2011,04,07,15,48,10.60
2011,04,07,15,49,10.50
2011,04,07,15,50,10.40
2011,04,07,15,51,10.40
2011,04,07,15,52,10.40
2011,04,07,15,53,10.40
2011,04,07,15,54,10.40
2011,04,07,15,55,10.30
2011,04,07,15,56,10.30
2011,04,07,15,57,10.30
2011,04,07,15,58,10.30
2011,04,07,15,59,10.30
2011,04,07,16,00,10.40
2011,04,07,16,01,10.40
2011,04,07,16,02,10.50
2011,04,07,16,03,10.60
2011,04,07,16,04,10.60
2011,04,07,16,05,10.60
2011,04,07,16,06,10.60
2011,04,07,16,07,10.60
2011,04,07,16,08,10.60
2011,04,07,16,09,10.70
2011,04,07,16,10,10.70
2011,04,07,16,11,10.70
2011,04,07,16,12,10.70
2011,04,07,16,13,10.60
2011,04,07,16,14,10.60
2011,04,07,16,15,10.60
2011,04,07,16,16,10.60
2011,04,07,16,17,10.70
2011,04,07,16,18,10.80
2011,04,07,16,19,10.80
2011,04,07,16,20,10.80
2011,04,07,16,21,10.80
2011,04,07,16,22,10.80
2011,04,07,16,23,10.80
2011,04,07,16,24,10.80
2011,04,07,16,25,10.90
2011,04,07,16,26,10.90
2011,04,07,16,27,10.90
2011,04,07,16,28,10.90
2011,04,07,16,29,10.90
2011,04,07,16,30,10.90
2011,04,07,16,31,10.90
2011,04,07,16,32,10.90
2011,04,07,16,33,11.00
2011,04,07,16,34,11.10
2011,04,07,16,35,11.00
2011,04,07,16,36,10.90
2011,04,07,16,37,10.80
2011,04,07,16,38,10.80
2011,04,07,16,39,10.90
2011,04,07,16,40,10.90
2011,04,07,16,41,10.90
2011,04,07,16,42,10.90
2011,04,07,16,43,10.90
2011,04,07,16,44,11.00
2011,04,07,16,45,11.00
2011,04,07,16,46,11.10
2011,04,07,16,47,11.10
2011,04,07,16,48,11.10
2011,04,07,16,49,11.10
2011,04,07,16,50,11.10
2011,04,07,16,51,11.10
2011,04,07,16,52,11.10
2011,04,07,16,53,11.10
2011,04,07,16,54,11.10
2011,04,07,16,55,11.00
2011,04,07,16,56,11.00
2011,04,07,16,57,11.10
2011,04,07,16,58,11.10
2011,04,07,16,59,11.20
2011,04,07,17,00,11.10
2011,04,07,17,01,11.00
2011,04,07,17,02,11.00
2011,04,07,17,03,10.90
2011,04,07,17,04,10.90
2011,04,07,17,05,10.90
2011,04,07,17,06,10.90
2011,04,07,17,07,10.90
2011,04,07,17,08,10.90
2011,04,07,17,09,11.00
2011,04,07,17,10,11.00
2011,04,07,17,11,11.00
2011,04,07,17,12,10.90
2011,04,07,17,13,10.90
2011,04,07,17,14,11.00
2011,04,07,17,15,10.90
2011,04,07,17,16,10.90
2011,04,07,17,17,10.90
2011,04,07,17,18,10.90
2011,04,07,17,19,10.90
2011,04,07,17,20,11.00
2011,04,07,17,21,11.00
2011,04,07,17,22,11.00
2011,04,07,17,23,11.00
2011,04,07,17,24,11.00
2011,04,07,17,25,10.90
2011,04,07,17,26,10.90
2011,04,07,17,27,10.90
2011,04,07,17,28,10.90
2011,04,07,17,29,10.90
2011,04,07,17,30,10.80
2011,04,07,17,31,10.80
2011,04,07,17,32,10.80
2011,04,07,17,33,10.80
2011,04,07,17,34,10.80
2011,04,07,17,35,10.90
2011,04,07,17,36,10.90
2011,04,07,17,37,10.90
2011,04,07,17,38,10.90
2011,04,07,17,39,10.90
2011,04,07,17,40,10.90
2011,04,07,17,41,11.00
2011,04,07,17,42,11.00
2011,04,07,17,43,11.10
2011,04,07,17,44,11.10
2011,04,07,17,45,11.20
2011,04,07,17,46,11.30
2011,04,07,17,47,11.40
2011,04,07,17,48,11.40
2011,04,07,17,49,11.40
2011,04,07,17,50,11.40
2011,04,07,17,51,11.40
2011,04,07,17,52,11.40
2011,04,07,17,53,11.40
2011,04,07,17,54,11.40
2011,04,07,17,55,11.40
2011,04,07,17,56,11.40
2011,04,07,17,57,11.40
2011,04,07,17,58,11.40